RH
88 84 80 71 67 69 67 59 42 36 35 28 32 33 28 26 22 33 29 23 23 19 25 23 24 20 18 20 20 17 30 31 23 20 18 16 15 11 10 12 11 10 11 23 28
92 90 78 76 72 65 67 62 43 38 33 28 34 31 27 26 29 29 21 18 17 17 23 22 19 14 20 18 21 24 33 23 13 11 12 11 13 14 14 14 12 12 15 16 18
90 83 68 67 74 76 69 60 47 41 31 27 36 30 27 26 36 17 17 17 15 15 22 16 12 13 16 16 20 19 26 17 13 19 17 16 16 13 15 17 20 19 18 17 15
82 83 82 76 71 76 67 66 50 41 32 27 36 29 26 34 29 23 19 16 13 14 23 15 14 17 17 19 14 19 16 13 15 21 18 17 16 17 16 17 16 15 18 18 19
90 89 91 86 72 72 60 60 44 38 33 28 34 28 28 33 23 21 17 18 14 20 21 15 16 16 21 14 14 18 17 14 12 14 17 17 18 19 18 16 13 16 17 21 24
87 88 91 79 73 70 67 58 47 40 30 32 32 29 43 34 18 27 22 20 21 20 16 14 16 16 18 17 17 17 17 16 13 13 14 18 19 17 18 14 16 17 22 24 25
90 88 89 83 77 69 66 61 44 32 26 35 31 32 30 26 18 27 30 28 20 16 15 14 14 17 18 20 16 17 19 17 15 14 17 16 23 23 17 14 15 19 24 26 27
89 88 85 86 79 70 60 56 37 30 30 34 30 42 32 19 19 23 24 18 17 16 16 16 16 17 18 17 17 17 18 24 17 17 20 20 23 20 14 16 16 19 24 27 29
89 88 83 89 87 76 61 58 33 34 38 33 38 36 29 20 19 20 20 16 16 16 17 16 16 20 20 24 24 19 22 19 22 15 17 21 20 21 15 14 18 19 23 26 30
89 89 92 89 89 85 63 37 38 42 34 48 36 32 24 21 17 17 19 16 17 18 18 20 22 27 26 25 30 20 19 14 16 19 16 18 20 19 18 17 18 20 24 28 30
90 88 94 91 88 76 62 43 47 47 38 26 25 21 18 18 19 18 18 17 17 21 28 24 30 33 26 19 16 18 19 18 15 20 19 22 21 17 20 20 22 21 26 31 32
92 95 95 92 85 68 73 46 19 27 33 30 21 24 22 21 20 18 18 21 23 28 24 27 33 24 19 18 17 19 20 20 17 18 20 21 21 19 19 22 23 22 28 32 32
93 94 93 92 86 90 64 35 36 26 28 26 26 20 22 21 22 20 18 20 24 28 26 30 24 17 16 17 21 21 23 21 20 19 20 23 29 24 20 21 21 20 27 28 32
95 98 94 93 90 54 49 36 34 20 33 27 27 24 18 22 26 18 18 20 23 27 25 27 21 18 19 20 19 26 20 18 19 22 32 23 33 28 26 24 22 25 28 30 32
96 99 91 65 38 43 24 28 31 28 54 21 27 22 18 25 23 21 17 19 25 23 21 23 24 25 24 21 18 22 21 19 22 28 28 25 31 24 26 32 30 27 28 32 32
96 98 82 70 48 33 29 30 29 44 49 26 27 28 27 25 24 23 22 19 18 23 21 21 18 18 19 20 19 23 23 26 25 31 40 27 28 32 31 28 28 26 28 33 33
96 96 88 55 42 38 33 30 48 51 22 33 31 28 29 31 29 25 27 28 28 33 32 24 24 19 21 26 24 24 28 38 47 46 42 22 27 25 23 20 21 23 26 32 33
97 96 79 54 41 37 33 38 53 30 27 26 28 28 32 27 29 27 28 31 25 25 27 33 32 25 23 24 27 30 26 34 39 34 30 24 36 26 20 18 18 18 23 30 34
100 100 82 61 44 41 35 53 42 25 23 30 29 34 32 26 27 28 28 29 24 24 30 24 29 25 24 21 21 27 35 22 29 22 28 22 20 20 20 20 19 20 24 30 32
97 89 66 57 48 43 42 46 33 22 24 28 34 30 36 32 32 28 28 22 24 22 21 21 36 26 28 23 24 28 26 30 28 32 34 25 19 25 25 25 24 23 27 30 33
76 71 56 56 47 42 47 41 35 22 25 29 30 31 28 34 30 29 24 23 20 23 20 22 24 34 30 32 31 32 30 27 28 29 34 32 28 17 23 24 27 25 25 30 34
65 64 65 50 54 48 48 37 34 28 27 33 31 26 27 28 30 29 28 24 22 26 27 21 26 40 30 25 23 25 25 25 33 25 30 34 37 18 20 19 23 24 24 29 34
58 85 64 50 52 55 43 40 34 32 32 32 33 29 24 28 33 27 27 28 29 28 27 24 28 33 36 30 26 28 26 26 24 26 33 35 31 21 18 18 21 24 28 33 38
58 86 78 70 48 41 45 44 43 37 33 28 28 27 27 29 29 31 35 35 28 29 30 26 29 29 31 27 29 30 26 26 28 34 29 28 23 24 24 23 23 24 31 39 42
64 57 57 76 61 43 40 40 42 48 38 29 31 31 30 31 32 30 37 42 35 41 28 32 37 30 27 21 21 24 25 27 31 28 32 25 24 20 20 24 24 27 32 40 42
70 50 49 53 45 47 47 43 44 42 38 36 34 31 28 28 29 29 33 36 36 41 35 33 39 30 31 26 26 32 29 27 27 26 25 25 27 20 20 25 26 25 31 37 41
54 49 42 52 53 52 52 42 43 41 37 30 31 33 33 28 30 29 29 29 34 39 38 42 39 37 41 29 36 47 37 34 28 26 25 30 25 29 30 30 28 30 28 38 42
Wind_Speed
13 12 12 12 12 11 11 9 8 9 10 7 9 9 11 13 13 6 7 3 8 5 5 4 6 7 7 3 4 3 3 4 4 3 1 7 1 3 2 3 5 3 1 10 7
15 14 14 13 13 13 11 10 9 9 10 7 9 10 10 13 12 10 10 8 6 7 7 11 9 7 5 2 2 2 3 5 6 7 5 5 2 4 5 8 8 3 9 10 8
16 15 14 14 13 13 12 11 10 10 9 7 8 10 10 12 6 3 15 10 7 9 7 8 5 5 3 3 5 4 5 5 6 8 9 5 5 2 4 6 6 5 8 11 11
17 15 14 14 14 12 13 11 10 10 8 8 7 9 10 4 2 2 11 11 9 8 8 8 6 6 1 4 2 3 9 3 4 5 3 5 3 4 7 2 6 5 6 4 6
18 16 15 14 15 12 13 11 10 10 8 8 6 8 5 5 7 2 6 11 9 7 11 7 6 2 5 0 0 7 9 5 3 2 5 7 6 7 7 7 4 3 1 5 7
19 18 17 15 15 14 13 11 10 10 8 6 4 6 4 7 2 0 6 10 7 9 11 8 4 7 6 4 3 7 5 8 7 5 3 2 7 4 5 4 6 4 7 6 6
19 18 17 17 15 14 14 10 11 8 6 4 4 3 7 11 4 3 7 8 8 10 10 1 7 4 7 7 6 5 7 9 10 4 1 2 8 7 6 5 5 8 8 7 8
18 18 17 17 15 14 13 10 10 7 5 4 4 2 5 6 7 6 7 7 6 5 4 4 2 4 3 4 4 5 8 5 5 7 5 4 5 7 6 7 4 9 8 8 8
19 17 17 17 15 13 12 9 7 5 5 5 4 5 6 3 6 12 12 9 9 5 2 2 2 3 3 5 6 8 5 7 5 7 5 7 3 8 6 2 7 8 9 8 8
19 18 18 17 15 13 10 6 4 3 4 4 6 4 6 8 7 8 14 13 7 7 3 4 3 5 5 5 6 6 4 5 3 7 5 5 9 8 11 8 6 9 9 8 8
20 19 18 17 15 13 11 6 3 4 12 7 7 8 6 6 2 5 13 9 10 7 6 7 4 6 13 9 8 5 7 8 8 3 2 7 9 9 10 8 7 8 10 8 8
22 20 18 16 15 14 11 6 0 4 4 20 12 11 13 8 3 10 16 9 7 9 10 6 8 11 8 5 4 5 8 9 8 7 2 8 9 9 4 5 9 10 10 10 8
23 22 18 16 15 16 16 8 1 3 2 5 19 15 11 13 6 8 11 11 10 10 13 13 7 4 3 3 3 7 8 8 5 1 8 4 8 8 4 6 8 9 11 9 10
24 23 20 18 10 14 13 18 3 6 2 5 9 7 15 6 6 13 20 10 6 11 12 13 10 7 5 5 6 7 5 4 5 2 3 6 4 3 8 6 5 8 10 10 10
26 26 27 27 4 12 7 19 5 0 4 5 7 1 10 12 4 4 5 3 8 7 7 3 7 5 6 8 5 6 2 2 4 5 6 6 2 7 14 9 8 8 9 10 10
28 28 28 18 5 11 13 20 6 3 7 5 5 6 7 17 10 3 2 3 3 7 7 5 3 4 2 3 1 4 3 5 4 3 4 9 9 4 10 13 13 10 9 10 9
29 29 33 20 5 15 23 13 4 6 3 5 5 11 13 12 15 7 9 8 7 5 7 6 8 4 6 4 1 3 4 1 2 2 4 2 3 8 10 11 15 16 13 11 10
29 30 31 21 14 23 18 9 8 12 8 5 5 10 13 11 14 12 10 12 14 9 3 10 5 13 7 7 5 7 5 3 4 1 1 1 5 4 5 7 9 17 15 13 11
31 28 16 20 18 20 11 12 7 2 8 9 8 8 8 7 4 9 15 14 13 17 8 5 5 4 5 1 2 4 5 1 3 6 2 5 3 3 6 3 3 6 14 13 11
29 19 13 18 18 14 8 14 10 4 1 8 8 8 8 10 5 10 11 11 15 17 16 4 3 2 2 1 2 2 3 2 2 3 4 5 2 4 7 7 6 6 10 11 10
22 5 15 25 16 7 12 9 7 4 2 5 5 7 7 8 11 11 5 1 12 9 15 5 4 3 5 7 7 3 3 4 1 1 1 3 3 4 7 9 10 9 7 10 10
14 5 22 25 7 8 13 11 13 6 3 0 3 2 5 8 11 9 7 3 3 7 5 6 3 4 4 3 3 1 6 7 3 3 3 3 5 4 6 5 9 9 9 9 10
9 4 13 19 12 13 9 17 14 10 5 5 4 3 1 5 4 8 4 4 6 5 6 6 5 4 2 1 1 4 5 4 2 1 6 2 5 1 2 3 7 8 10 8 9
6 5 3 4 10 14 18 15 19 4 4 6 2 2 3 3 3 4 3 1 2 1 1 1 3 5 4 3 5 4 6 7 6 3 3 8 10 7 8 6 6 7 9 10 9
3 6 10 13 16 13 21 15 20 8 4 7 5 6 6 5 5 4 4 3 1 1 0 1 4 4 7 4 3 3 3 9 9 13 6 11 8 10 5 7 8 9 9 11 10
5 4 7 13 20 18 13 20 20 17 11 7 5 9 7 3 6 5 6 6 4 3 5 1 2 3 3 5 6 5 6 9 9 13 13 13 16 6 3 5 6 8 9 14 13
17 3 7 11 19 18 16 19 16 14 8 10 8 4 7 5 7 5 6 5 7 7 6 5 2 2 3 1 3 5 12 16 13 10 9 12 11 3 3 4 1 5 4 9 12
Wind_Direction
246 256 269 271 273 274 275 280 285 292 295 300 298 310 317 319 315 300 256 255 200 212 192 187 227 231 249 194 294 302 314 272 235 147 280 94 29 344 135 232 270 218 92 120 144
246 249 254 262 266 269 272 282 282 285 291 293 299 308 318 324 315 261 243 246 233 195 189 211 211 184 241 196 228 256 211 286 49 19 10 48 40 336 350 304 308 283 69 128 147
248 249 251 255 260 267 272 272 277 280 289 285 296 307 318 326 274 221 210 224 212 195 237 292 311 276 276 333 214 233 253 46 358 38 15 359 316 355 312 288 67 5 360 3 345
245 248 248 248 256 255 259 265 268 275 284 275 288 310 314 318 255 73 177 195 193 197 266 251 258 245 243 212 183 298 249 340 344 81 344 288 2 306 271 293 71 19 28 320 307
246 243 244 246 251 252 255 260 264 273 274 265 296 320 319 231 268 219 187 182 185 201 241 247 288 320 254 296 291 242 273 26 325 274 215 250 268 246 281 82 93 133 240 28 14
247 244 245 243 242 244 248 252 251 260 264 266 297 317 263 254 52 333 161 186 191 214 238 265 318 26 299 311 312 1 324 297 284 270 280 202 267 129 211 141 163 160 62 62 43
243 243 241 241 236 239 241 238 246 257 263 268 288 313 267 245 69 192 181 201 211 223 267 33 342 310 351 296 2 277 286 273 243 165 123 226 256 206 150 184 175 121 101 74 55
234 238 231 235 234 230 237 236 242 248 243 253 273 231 256 228 211 212 185 196 206 234 296 91 274 297 287 346 255 246 245 253 112 151 160 182 292 149 167 186 132 110 100 84 64
224 229 228 227 229 229 229 235 241 230 240 239 244 225 251 253 209 216 196 189 180 160 138 184 250 276 167 237 274 205 271 221 164 199 141 195 337 147 163 252 172 133 113 100 82
217 218 222 224 220 221 225 197 210 224 228 249 258 244 245 242 202 200 195 211 161 161 170 232 225 222 233 237 249 339 254 296 189 183 211 249 253 200 180 188 234 135 119 103 92
214 213 218 218 212 206 188 142 140 208 219 211 198 226 30 135 104 212 180 202 198 182 209 197 214 233 245 232 239 11 317 300 297 129 145 241 251 251 174 166 223 157 126 120 112
212 208 210 208 200 192 189 238 206 102 205 229 239 214 262 295 252 214 171 196 191 205 222 234 229 250 267 3 344 292 278 275 279 118 104 269 267 230 148 223 207 157 129 135 135
213 202 200 191 185 192 209 219 182 152 277 245 213 218 214 211 248 207 171 211 188 219 231 239 236 30 200 151 274 248 249 268 295 115 224 256 272 221 189 211 174 143 138 147 140
210 195 184 171 167 188 219 213 122 137 271 244 184 220 203 222 247 258 189 194 247 231 238 246 236 197 210 240 221 264 21 308 293 317 259 140 291 142 169 167 146 148 146 153 147
204 191 179 169 165 168 205 188 133 178 253 170 155 121 185 192 136 198 106 238 231 210 246 216 154 194 236 245 250 252 5 282 248 257 299 244 226 266 152 192 193 194 174 159 149
200 191 175 187 181 184 155 163 141 197 245 163 129 176 157 197 214 92 164 28 275 266 222 250 352 203 244 90 39 112 219 215 244 239 261 242 183 200 176 197 186 189 188 160 159
196 187 177 173 202 148 153 155 156 228 62 168 187 172 187 187 215 168 183 195 193 190 222 229 203 160 156 134 144 224 275 248 244 185 231 50 119 253 197 182 177 178 181 165 159
189 183 178 194 172 160 171 172 215 186 224 134 159 169 192 174 204 183 192 209 224 220 231 203 214 174 183 219 184 195 205 219 307 25 155 58 229 234 78 63 156 175 171 160 160
176 173 188 205 184 176 162 198 207 258 139 149 149 185 195 157 154 179 222 214 216 213 217 224 185 32 78 283 204 164 201 1 292 268 335 223 202 359 91 80 351 178 161 168 166
156 161 200 199 180 203 173 211 204 89 81 158 180 197 175 169 168 184 196 213 223 203 221 291 110 199 93 22 293 302 312 160 228 251 240 255 259 207 193 195 203 225 176 168 160
146 147 167 189 166 195 199 197 236 119 177 184 271 194 186 170 199 190 221 262 202 179 199 247 235 118 131 207 178 187 245 220 193 242 225 332 280 332 193 183 190 210 212 160 155
156 163 173 167 179 199 205 189 228 203 139 316 274 279 219 157 185 196 230 116 57 124 164 209 313 174 192 77 57 262 211 203 166 247 222 140 277 17 8 149 162 190 190 157 156
162 114 186 193 198 191 193 213 233 215 177 185 234 248 350 155 193 218 113 331 107 147 173 171 230 162 135 163 221 219 202 252 314 49 231 219 259 244 240 218 170 175 165 145 133
156 134 149 224 240 183 192 206 216 215 227 212 171 147 156 196 102 171 114 74 147 148 62 98 278 227 173 118 124 196 203 199 201 211 236 229 264 230 215 213 186 184 147 133 129
243 161 165 184 204 210 184 199 201 177 214 189 201 215 190 167 157 187 113 118 20 20 160 172 233 254 277 136 118 308 251 203 206 242 230 262 280 280 324 187 215 188 150 138 143
201 176 151 167 190 200 214 201 204 191 175 197 214 198 236 201 186 175 139 171 179 167 196 187 264 30 306 310 210 228 253 263 237 232 245 259 272 295 317 50 17 188 168 161 161
214 252 146 160 187 193 205 208 204 183 218 195 201 233 204 217 91 100 58 65 147 150 188 148 181 151 255 172 353 284 222 230 241 244 237 246 251 137 32 77 24 343 7 165 149